Radiation Dose at Monitoring Post of Fukushima Daini Nuclear Power Station
Date,Time,MP-1(microSv/h),MP-2(microSv/h),MP-3(microSv/h),MP-4(microSv/h),MP-5(microSv/h),MP-6(microSv/h),MP-7(microSv/h),Wind Direction,Wind Velocity(m/s),Rain
2020/03/23,00:00,0.183,0.167,0.272,0.250,0.257,0.141,0.086,northwest,1.7,No
2020/03/23,00:10,0.182,0.168,0.273,0.252,0.260,0.142,0.086,north-northwest,3.3,No
2020/03/23,00:20,0.183,0.167,0.272,0.251,0.259,0.142,0.085,northwest,3.6,No
2020/03/23,00:30,0.183,0.167,0.272,0.252,0.259,0.142,0.085,northwest,2.3,No
2020/03/23,00:40,0.183,0.167,0.274,0.251,0.259,0.142,0.086,north-northeast,2.3,No
2020/03/23,00:50,0.182,0.168,0.272,0.251,0.259,0.142,0.086,north-northeast,3.0,No
2020/03/23,01:00,0.182,0.168,0.272,0.252,0.258,0.141,0.086,north-northwest,2.8,No
2020/03/23,01:10,0.182,0.168,0.273,0.252,0.259,0.142,0.085,north,3.6,No
2020/03/23,01:20,0.183,0.168,0.274,0.251,0.258,0.141,0.085,north,1.8,No
2020/03/23,01:30,0.183,0.167,0.273,0.252,0.260,0.142,0.085,north,4.4,No
2020/03/23,01:40,0.183,0.167,0.272,0.253,0.259,0.142,0.086,north,4.5,No
2020/03/23,01:50,0.183,0.168,0.273,0.252,0.258,0.142,0.087,north,4.3,No
2020/03/23,02:00,0.184,0.168,0.272,0.252,0.259,0.141,0.086,north,4.6,No
2020/03/23,02:10,0.183,0.167,0.272,0.252,0.259,0.142,0.085,north,4.7,No
2020/03/23,02:20,0.182,0.168,0.272,0.251,0.259,0.141,0.086,north,6.6,No
2020/03/23,02:30,0.184,0.169,0.274,0.253,0.259,0.142,0.086,north,5.7,No
2020/03/23,02:40,0.182,0.168,0.273,0.251,0.259,0.142,0.086,north,6.1,No
2020/03/23,02:50,0.182,0.167,0.272,0.251,0.258,0.141,0.085,north,6.5,No
2020/03/23,03:00,0.183,0.168,0.272,0.251,0.258,0.141,0.086,north,6.6,No
2020/03/23,03:10,0.183,0.168,0.273,0.252,0.259,0.141,0.086,north,6.5,No
2020/03/23,03:20,0.183,0.168,0.272,0.251,0.259,0.141,0.086,north,5.1,No
2020/03/23,03:30,0.182,0.167,0.271,0.251,0.258,0.141,0.086,north,5.9,No
2020/03/23,03:40,0.183,0.168,0.272,0.251,0.258,0.142,0.087,north,5.6,No
2020/03/23,03:50,0.183,0.167,0.273,0.252,0.259,0.141,0.086,north,6.4,No
2020/03/23,04:00,0.183,0.167,0.273,0.252,0.258,0.142,0.085,north,6.9,No
2020/03/23,04:10,0.183,0.168,0.271,0.252,0.258,0.141,0.085,north,6.4,No
2020/03/23,04:20,0.182,0.169,0.272,0.251,0.260,0.141,0.085,north,6.0,No
2020/03/23,04:30,0.183,0.168,0.271,0.252,0.258,0.141,0.086,north,6.0,No
2020/03/23,04:40,0.183,0.167,0.273,0.251,0.259,0.142,0.085,north,6.9,No
2020/03/23,04:50,0.183,0.169,0.271,0.252,0.259,0.141,0.086,north,6.6,No
2020/03/23,05:00,0.183,0.167,0.272,0.251,0.258,0.142,0.086,north,6.6,No
2020/03/23,05:10,0.183,0.168,0.273,0.252,0.259,0.142,0.085,north,8.4,No
2020/03/23,05:20,0.182,0.167,0.272,0.251,0.258,0.142,0.085,north-northwest,8.7,No
2020/03/23,05:30,0.183,0.168,0.271,0.252,0.258,0.142,0.085,north-northwest,8.2,No
2020/03/23,05:40,0.183,0.168,0.273,0.252,0.260,0.142,0.086,north-northwest,6.9,No
2020/03/23,05:50,0.183,0.168,0.273,0.250,0.259,0.141,0.086,north-northwest,8.1,No
2020/03/23,06:00,0.183,0.167,0.274,0.252,0.259,0.141,0.085,north-northwest,8.2,No
2020/03/23,06:10,0.183,0.168,0.273,0.252,0.258,0.142,0.085,north-northwest,6.8,No
2020/03/23,06:20,0.183,0.168,0.273,0.252,0.259,0.142,0.087,north-northwest,6.4,No
2020/03/23,06:30,0.183,0.169,0.273,0.252,0.258,0.142,0.086,north-northwest,7.3,No
2020/03/23,06:40,0.183,0.167,0.273,0.251,0.258,0.142,0.085,north-northwest,6.3,No
2020/03/23,06:50,0.183,0.167,0.273,0.252,0.258,0.141,0.085,north-northwest,6.0,No
2020/03/23,07:00,0.183,0.168,0.273,0.253,0.259,0.142,0.085,north,5.8,No
2020/03/23,07:10,0.183,0.168,0.272,0.251,0.260,0.141,0.085,north-northwest,6.3,No
2020/03/23,07:20,0.183,0.167,0.271,0.251,0.258,0.141,0.085,north,6.2,No
2020/03/23,07:30,0.184,0.167,0.272,0.252,0.259,0.141,0.086,north-northwest,6.3,No
2020/03/23,07:40,0.183,0.167,0.271,0.251,0.259,0.141,0.086,north,7.0,No
2020/03/23,07:50,0.183,0.167,0.271,0.251,0.259,0.142,0.085,north-northwest,7.5,No
2020/03/23,08:00,0.184,0.167,0.272,0.251,0.258,0.142,0.086,north,7.7,No
2020/03/23,08:10,0.183,0.168,0.271,0.250,0.258,0.141,0.086,north-northwest,6.4,No
2020/03/23,08:20,0.182,0.168,0.272,0.251,0.259,0.141,0.086,north,5.0,No
2020/03/23,08:30,0.182,0.167,0.272,0.251,0.259,0.141,0.086,north-northwest,6.2,No
2020/03/23,08:40,0.183,0.167,0.271,0.251,0.260,0.142,0.085,north,4.5,No
2020/03/23,08:50,0.182,0.167,0.272,0.250,0.258,0.141,0.086,north-northwest,3.6,No
2020/03/23,09:00,0.184,0.168,0.273,0.250,0.258,0.142,0.085,north,4.6,No
2020/03/23,09:10,0.182,0.167,0.270,0.252,0.258,0.142,0.086,north,2.7,No
2020/03/23,09:20,0.184,0.168,0.272,0.250,0.258,0.139,0.086,north-northwest,4.0,No
2020/03/23,09:30,0.182,0.168,0.271,0.251,0.259,0.141,0.086,north,3.7,No
2020/03/23,09:40,0.183,0.166,0.272,0.252,0.258,0.140,0.085,northwest,3.9,No
2020/03/23,09:50,0.184,0.168,0.273,0.251,0.260,0.141,0.085,north-northeast,2.4,No
2020/03/23,10:00,0.181,0.169,0.271,0.251,0.256,0.141,0.085,northeast,2.9,No
2020/03/23,10:10,0.183,0.166,0.271,0.251,0.259,0.141,0.086,northeast,2.5,No
2020/03/23,10:20,0.181,0.167,0.271,0.251,0.257,0.140,0.085,east-northeast,2.6,No
2020/03/23,10:30,0.182,0.166,0.271,0.250,0.258,0.141,0.086,east-northeast,3.7,No
2020/03/23,10:40,0.182,0.167,0.271,0.249,0.258,0.141,0.084,northeast,1.4,No
2020/03/23,10:50,0.183,0.167,0.272,0.252,0.260,0.142,0.084,north-northwest,1.9,No
2020/03/23,11:00,0.181,0.167,0.272,0.250,0.258,0.141,0.085,north,5.1,No
2020/03/23,11:10,0.182,0.168,0.273,0.252,0.261,0.141,0.085,north,6.6,No
2020/03/23,11:20,0.182,0.167,0.273,0.251,0.258,0.141,0.086,north-northwest,4.3,No
2020/03/23,11:30,0.182,0.168,0.272,0.251,0.261,0.141,0.085,north-northwest,4.6,No
2020/03/23,11:40,0.184,0.167,0.273,0.253,0.260,0.142,0.085,north-northwest,2.8,No
2020/03/23,11:50,0.181,0.169,0.272,0.252,0.260,0.141,0.085,west-northwest,2.2,No
2020/03/23,12:00,0.183,0.168,0.271,0.253,0.258,0.142,0.085,west-northwest,5.5,No
2020/03/23,12:10,0.182,0.167,0.272,0.251,0.261,0.141,0.085,west-northwest,6.9,No
2020/03/23,12:20,0.184,0.168,0.273,0.252,0.259,0.141,0.085,north,2.4,No
2020/03/23,12:30,0.182,0.167,0.273,0.250,0.259,0.141,0.086,north-northeast,2.8,No
2020/03/23,12:40,0.183,0.168,0.271,0.252,0.256,0.142,0.085,east-northeast,3.9,No
2020/03/23,12:50,0.183,0.168,0.272,0.250,0.261,0.140,0.085,northeast,2.7,No
2020/03/23,13:00,0.183,0.167,0.272,0.252,0.259,0.141,0.085,west,3.3,No
2020/03/23,13:10,0.183,0.168,0.272,0.253,0.261,0.141,0.085,west,1.9,No
2020/03/23,13:20,0.183,0.168,0.270,0.252,0.259,0.141,0.085,west-northwest,5.5,No
2020/03/23,13:30,0.183,0.169,0.272,0.252,0.259,0.142,0.085,west-northwest,6.9,No
2020/03/23,13:40,0.183,0.167,0.271,0.251,0.259,0.140,0.085,west-northwest,7.5,No
2020/03/23,13:50,0.182,0.167,0.273,0.251,0.259,0.140,0.085,northwest,8.4,No
2020/03/23,14:00,0.182,0.168,0.271,0.250,0.257,0.141,0.086,northwest,9.5,No
2020/03/23,14:10,0.182,0.168,0.271,0.249,0.258,0.141,0.084,northwest,9.8,No
2020/03/23,14:20,0.183,0.166,0.273,0.252,0.256,0.141,0.085,west-northwest,10.3,No
2020/03/23,14:30,0.183,0.167,0.271,0.251,0.259,0.141,0.085,west-northwest,9.5,No
2020/03/23,14:40,0.182,0.167,0.274,0.252,0.258,0.142,0.085,north-northwest,5.9,No
2020/03/23,14:50,0.182,0.167,0.272,0.250,0.258,0.141,0.085,northwest,7.4,No
2020/03/23,15:00,0.182,0.168,0.274,0.253,0.259,0.142,0.086,northwest,8.7,No
2020/03/23,15:10,0.183,0.167,0.272,0.252,0.257,0.142,0.086,north-northwest,7.8,No
2020/03/23,15:20,0.183,0.168,0.273,0.252,0.258,0.141,0.086,north-northwest,8.4,No
2020/03/23,15:30,0.183,0.168,0.274,0.252,0.258,0.141,0.086,north-northwest,7.4,No
2020/03/23,15:40,0.183,0.168,0.274,0.251,0.260,0.141,0.086,north-northwest,8.5,No
2020/03/23,15:50,0.183,0.169,0.274,0.253,0.258,0.142,0.086,north-northwest,8.7,No
2020/03/23,16:00,0.181,0.168,0.274,0.252,0.259,0.142,0.086,north-northwest,6.4,No
2020/03/23,16:10,0.184,0.168,0.273,0.253,0.260,0.142,0.085,north,5.0,No
2020/03/23,16:20,0.183,0.169,0.273,0.254,0.260,0.140,0.085,north-northwest,5.6,No
2020/03/23,16:30,0.184,0.168,0.273,0.252,0.259,0.142,0.086,north-northwest,5.0,No
2020/03/23,16:40,0.183,0.168,0.276,0.253,0.259,0.142,0.086,north-northwest,6.3,No
2020/03/23,16:50,0.183,0.168,0.274,0.254,0.262,0.143,0.086,north-northwest,5.9,No
2020/03/23,17:00,0.183,0.169,0.273,0.252,0.260,0.142,0.086,north,7.0,No
2020/03/23,17:10,0.183,0.168,0.275,0.253,0.262,0.142,0.086,north-northwest,5.4,No
2020/03/23,17:20,0.183,0.169,0.275,0.252,0.259,0.141,0.086,north-northwest,5.8,No
2020/03/23,17:30,0.184,0.168,0.274,0.254,0.258,0.142,0.086,north-northwest,5.8,No
2020/03/23,17:40,0.184,0.168,0.273,0.253,0.261,0.142,0.085,northwest,5.4,No
2020/03/23,17:50,0.184,0.169,0.274,0.254,0.259,0.142,0.086,northwest,6.0,No
2020/03/23,18:00,0.185,0.169,0.275,0.253,0.259,0.143,0.086,west-northwest,5.9,No
2020/03/23,18:10,0.184,0.168,0.275,0.252,0.260,0.142,0.085,northwest,7.0,No
2020/03/23,18:20,0.184,0.169,0.274,0.252,0.258,0.142,0.086,northwest,7.0,No
2020/03/23,18:30,0.184,0.169,0.274,0.253,0.259,0.142,0.086,northwest,7.7,No
2020/03/23,18:40,0.185,0.168,0.274,0.252,0.259,0.143,0.086,northwest,9.0,No
2020/03/23,18:50,0.183,0.168,0.271,0.253,0.258,0.143,0.086,northwest,7.6,No
2020/03/23,19:00,0.183,0.168,0.275,0.253,0.260,0.143,0.086,west-northwest,5.8,No
2020/03/23,19:10,0.184,0.169,0.275,0.253,0.258,0.142,0.086,west-northwest,4.7,No
2020/03/23,19:20,0.184,0.169,0.274,0.253,0.259,0.142,0.086,west-northwest,4.7,No
2020/03/23,19:30,0.183,0.169,0.274,0.253,0.257,0.142,0.086,west-northwest,3.9,No
2020/03/23,19:40,0.184,0.168,0.274,0.254,0.258,0.142,0.086,west-northwest,4.0,No
2020/03/23,19:50,0.185,0.168,0.275,0.253,0.260,0.143,0.085,northwest,4.0,No
2020/03/23,20:00,0.183,0.168,0.275,0.252,0.259,0.142,0.086,northwest,4.8,No
2020/03/23,20:10,0.184,0.167,0.274,0.253,0.259,0.141,0.085,northwest,6.0,No
2020/03/23,20:20,0.183,0.169,0.274,0.253,0.258,0.142,0.086,northwest,6.1,No
2020/03/23,20:30,0.183,0.169,0.274,0.253,0.260,0.142,0.086,northwest,6.1,No
2020/03/23,20:40,0.184,0.168,0.274,0.252,0.259,0.143,0.086,northwest,5.0,No
2020/03/23,20:50,0.183,0.169,0.274,0.253,0.258,0.142,0.086,northwest,5.0,No
2020/03/23,21:00,0.184,0.169,0.274,0.253,0.259,0.142,0.085,north-northwest,5.1,No
2020/03/23,21:10,0.183,0.168,0.274,0.253,0.259,0.142,0.086,north-northwest,4.3,No
2020/03/23,21:20,0.184,0.168,0.273,0.252,0.260,0.143,0.086,northwest,3.4,No
2020/03/23,21:30,0.184,0.168,0.273,0.253,0.259,0.143,0.086,northwest,2.9,No
2020/03/23,21:40,0.184,0.169,0.274,0.252,0.259,0.142,0.086,northwest,3.2,No
2020/03/23,21:50,0.184,0.167,0.274,0.254,0.259,0.142,0.086,northwest,2.5,No
2020/03/23,22:00,0.184,0.169,0.274,0.253,0.259,0.142,0.086,northwest,2.2,No
2020/03/23,22:10,0.184,0.169,0.275,0.253,0.258,0.142,0.086,west-northwest,1.3,No
2020/03/23,22:20,0.184,0.168,0.273,0.252,0.260,0.142,0.086,north-northwest,1.0,No
2020/03/23,22:30,0.185,0.170,0.274,0.253,0.259,0.142,0.086,northwest,1.3,No
2020/03/23,22:40,0.183,0.169,0.274,0.253,0.259,0.142,0.086,northwest,2.3,No
2020/03/23,22:50,0.184,0.168,0.276,0.252,0.259,0.142,0.086,northwest,2.4,No
2020/03/23,23:00,0.185,0.168,0.274,0.252,0.259,0.142,0.086,northwest,2.7,No
2020/03/23,23:10,0.184,0.169,0.275,0.252,0.259,0.141,0.086,north-northwest,2.7,No
2020/03/23,23:20,0.184,0.168,0.273,0.254,0.259,0.141,0.086,northwest,2.2,No
2020/03/23,23:30,0.183,0.169,0.276,0.253,0.259,0.142,0.086,north-northwest,3.0,No
2020/03/23,23:40,0.184,0.168,0.273,0.253,0.259,0.142,0.087,north,3.7,No
2020/03/23,23:50,0.184,0.169,0.275,0.254,0.259,0.142,0.086,north-northwest,3.5,No
